Location: Aghk�ilisa
(40.0189°N, 45.0097°E)
Time: 11:15:05
(UTC+00:00)

Okean-O - Pass Details

Date: 21 October 2019
Orbit: 639 x 641 km, 98.2° (Epoch: 20 November)

Event Time Altitude Azimuth Distance (km) Brightness Sun altitude
Rises 15:17:36 0° 185° (S) 2,931 6.1 -13.2°
Reaches altitude 10° 15:19:55 10° 193° (SSW) 2,026 5.4 -13.6°
Maximum altitude 15:24:02 38° 262° (W) 989 4.3 -14.4°
Drops below altitude 10° 15:28:10 10° 330° (NNW) 2,041 5.6 -15.2°
Sets 15:30:31 0° 339° (NNW) 2,954 6.3 -15.6°
